Powrót do katalogu

ONEWEB-0222

AktywnyŁącznośćPO
NORAD 48775·PAYLOAD·🇬🇧 United Kingdom

Wystrzelony May 28, 2021 z Vostochny Cosmodrome

Loading…

Następne Przeloty (najbliższe 24 godziny)

TLE

ŚwieżeSource: CelesTrak SupGP

Epoka: Sep 14, 2026, 19:25 UTC

1 48775C 21045J   26257.80918238  .00003661  00000+0  97372-2 0  2576
2 48775  87.8988 241.3203 0002001  79.2433 343.5690 13.15545121    16

Śledź ONEWEB-0222 w czasie rzeczywistym z AllMySat

Download on the App Store